Wind_Speed
26 25 26 25 26 27 27 26 25 24 24 23 23 22 22 22 22 22 22 22 22 22 21 21 21 21 21 22 23 23 23 24 24 25 25 25 25 25 24 24 25 25 26 26
28 28 28 27 28 28 28 27 26 25 24 24 24 24 24 24 24 24 24 24 24 23 22 22 22 22 22 24 24 25 25 25 25 26 26 27 27 27 27 27 26 27 26 27
28 29 29 30 29 28 28 28 27 26 26 26 26 26 26 26 26 26 25 25 26 26 25 24 24 24 25 26 27 27 27 27 27 28 28 28 28 29 29 29 29 28 27 28
29 30 31 29 29 29 29 29 29 29 29 28 28 28 28 28 28 28 27 28 28 28 27 27 27 27 27 28 29 29 29 29 28 29 29 29 30 31 31 31 31 30 29 29
31 31 31 30 30 29 29 29 29 30 30 29 29 30 30 30 30 29 29 30 30 30 30 30 30 30 30 30 30 30 29 30 30 30 29 29 29 30 31 31 31 30 30 30
31 31 31 31 31 29 30 31 30 31 31 32 32 32 32 32 32 32 32 32 32 32 32 32 32 32 32 32 31 31 31 31 31 31 30 29 30 30 30 30 30 30 30 30
31 32 31 32 31 30 31 32 32 33 33 33 33 33 33 33 33 34 34 34 33 33 34 34 34 34 34 35 34 33 32 32 32 32 31 31 30 30 30 30 30 30 30 29
31 31 32 32 32 32 33 33 33 34 33 34 34 33 33 33 33 33 34 34 34 35 35 36 36 35 35 35 35 34 33 33 34 33 33 32 32 32 31 31 30 29 29 28
31 32 32 32 33 33 33 33 33 34 34 34 34 34 34 33 32 33 34 34 34 35 35 36 35 34 34 35 35 35 35 35 35 35 34 34 33 33 32 31 31 30 30 29
32 32 32 32 33 33 33 33 34 34 34 34 34 34 35 34 33 33 34 34 34 35 35 34 34 34 34 34 35 35 35 36 36 35 35 35 34 34 33 32 32 32 32 31
32 33 34 34 34 34 34 35 35 35 35 35 35 34 34 35 35 34 34 34 33 33 34 34 35 35 35 35 36 36 36 36 36 36 36 35 35 34 34 34 33 33 33 32
31 32 33 33 34 35 35 35 34 34 35 35 35 34 34 34 34 34 33 33 34 34 35 35 36 36 36 36 36 37 37 37 36 36 36 36 35 35 35 34 34 34 33 33
31 32 32 32 33 34 34 34 34 34 34 34 34 33 33 33 33 33 33 33 34 35 36 36 37 37 36 36 37 37 37 37 37 36 36 36 35 35 35 34 33 33 32 32
31 31 32 32 32 32 32 32 32 32 33 33 33 32 33 33 33 33 33 34 35 35 36 36 36 36 37 37 38 37 37 37 37 36 37 36 34 34 33 33 33 33 32 32
30 31 30 30 30 30 30 30 31 31 31 31 32 32 33 33 34 34 34 34 34 34 35 35 35 36 36 36 36 36 36 36 36 36 35 33 32 32 33 33 33 33 32 31
27 27 28 28 27 28 28 29 29 30 30 31 32 33 34 34 34 34 35 35 34 35 35 34 34 34 35 35 35 35 35 35 35 34 34 33 32 32 33 32 32 32 31 31
25 25 25 25 26 27 27 28 29 29 30 30 31 31 32 32 33 33 34 34 34 34 34 34 34 34 35 35 35 35 33 33 33 33 32 32 32 32 32 31 31 31 31 31
23 23 24 24 24 25 26 27 27 28 28 29 29 30 30 30 31 31 32 32 32 32 32 33 33 33 33 34 34 34 33 32 32 31 30 30 30 30 30 30 30 29 30 30
22 23 23 24 25 25 25 26 27 27 27 27 28 29 29 29 29 29 29 29 30 30 31 31 31 32 32 32 32 32 31 30 29 29 28 28 28 28 28 28 28 28 28 28
21 22 22 23 23 24 25 25 26 25 25 26 26 26 27 27 27 28 28 28 28 28 29 29 29 29 30 30 30 30 29 29 28 27 27 28 28 27 27 27 27 27 27 27
19 19 19 20 21 22 23 24 25 25 25 25 25 26 26 26 26 25 25 26 27 28 28 27 27 27 28 28 28 28 27 27 27 27 27 26 26 26 26 26 26 26 26 26
19 19 19 20 21 22 23 23 24 24 24 24 24 25 26 26 25 25 24 25 26 26 26 26 26 26 26 26 26 26 26 26 26 26 25 25 25 25 25 26 26 26 26 26
18 18 18 19 20 20 21 22 22 23 23 23 23 23 23 23 23 24 24 25 25 25 26 26 26 25 25 25 24 24 25 25 25 24 24 24 25 25 25 25 26 26 26 26
17 17 18 19 19 20 20 21 22 22 21 21 21 21 22 22 23 23 23 23 23 23 24 24 23 23 23 23 23 22 22 22 23 23 23 23 24 25 25 25 26 26 26 25
17 17 17 18 18 19 19 19 19 20 20 20 20 20 20 20 20 20 21 21 21 21 21 20 19 19 20 20 20 20 20 21 21 21 21 22 22 22 23 24 25 25 25 25
16 17 17 17 17 18 18 18 18 18 18 19 19 19 19 19 20 20 20 20 19 19 19 18 18 18 18 19 19 19 19 19 19 20 21 22 22 22 23 23 23 23 24 23
16 16 16 16 16 17 18 18 18 18 18 19 19 19 19 19 19 19 19 18 18 18 18 17 17 17 18 19 19 19 19 19 19 20 20 20 21 21 22 23 23 23 24 24
Wind_Direction
245 249 252 255 256 254 254 256 260 264 266 267 268 269 269 269 270 272 273 273 275 276 276 279 280 282 283 285 287 288 290 292 294 294 293 291 290 288 289 290 291 291 289 289
248 251 251 254 255 255 255 257 261 263 265 265 266 266 268 270 270 273 275 274 273 274 274 277 279 282 284 284 285 288 290 291 292 293 292 291 289 287 288 288 289 289 289 288
249 252 254 256 258 259 258 259 261 264 265 266 266 266 267 268 269 270 271 272 272 272 273 276 279 281 283 284 286 288 290 291 292 292 292 291 289 288 287 287 286 284 284 286
251 253 255 257 257 257 259 261 262 263 265 267 267 266 266 267 268 268 269 269 269 271 271 274 278 279 282 283 285 287 288 289 289 289 289 289 288 287 286 286 285 284 284 284
250 253 258 259 258 258 261 263 264 266 266 266 267 266 266 265 265 266 267 268 269 270 271 273 275 277 278 280 282 286 287 288 289 289 288 288 288 289 288 287 285 284 282 282
250 252 255 258 259 260 262 265 265 266 268 268 266 265 265 265 266 266 267 268 270 271 271 272 274 276 277 279 281 284 286 286 288 289 289 288 288 289 289 288 287 286 285 284
251 254 256 258 261 263 263 265 265 266 267 267 267 266 266 266 267 267 267 268 270 270 270 271 272 274 277 278 281 283 283 285 286 287 288 287 287 288 288 288 287 286 286 285
251 253 256 260 261 261 263 265 266 266 266 266 267 268 268 268 267 266 267 269 270 270 270 270 271 273 276 278 281 283 282 283 285 286 286 286 286 288 288 287 287 287 287 285
251 252 256 259 261 262 263 264 265 267 267 267 268 269 269 268 267 267 267 268 269 269 270 271 272 274 276 278 280 282 281 283 284 285 285 285 285 286 286 285 285 285 286 285
252 253 255 258 260 262 263 265 267 268 267 267 267 268 268 268 269 269 267 268 268 269 270 271 272 274 276 278 279 281 282 282 283 283 283 283 283 284 284 283 282 283 283 283
256 256 257 258 260 263 264 266 268 269 268 268 268 268 268 268 269 269 269 269 269 269 270 271 272 274 276 277 279 280 282 282 281 281 281 281 282 283 283 283 282 282 282 282
260 261 262 262 263 264 265 266 269 269 268 267 268 270 270 270 269 268 269 268 268 269 270 271 273 274 276 276 278 280 281 281 280 280 280 281 282 282 281 281 282 282 281 279
261 262 262 263 264 265 265 267 267 268 268 267 268 269 270 270 271 270 269 268 268 269 271 273 274 274 274 276 278 279 279 280 280 280 280 280 280 280 280 280 279 279 280 280
262 263 263 262 263 265 266 266 266 267 268 267 268 268 270 271 272 271 271 271 271 272 273 274 274 274 275 277 278 279 279 280 280 280 280 280 279 278 278 279 278 278 279 280
262 263 264 264 264 265 266 266 266 266 267 269 268 269 270 270 271 272 274 274 274 274 274 274 274 276 278 278 279 280 280 281 280 279 280 279 278 278 278 279 278 277 279 280
263 262 263 264 266 266 266 266 266 266 268 270 268 269 272 272 271 273 275 275 275 275 274 274 275 276 277 277 278 280 281 281 280 279 278 278 277 277 277 277 278 278 279 280
266 264 263 263 265 267 268 268 268 269 271 272 272 273 274 274 274 274 274 274 273 274 274 273 274 275 276 278 279 280 279 279 279 279 279 278 278 278 277 277 278 280 280 280
265 263 264 265 268 269 270 270 270 271 272 272 272 273 275 275 276 277 275 273 273 274 275 275 275 276 278 278 279 280 279 280 279 278 278 278 279 279 278 278 279 282 282 281
265 266 267 267 269 270 270 270 273 273 272 272 273 273 274 276 276 275 274 273 273 274 276 277 278 278 278 278 279 280 280 280 279 280 279 280 279 280 281 280 282 283 283 282
266 267 268 268 268 269 270 272 275 275 275 276 277 277 277 277 276 275 275 275 276 276 277 277 278 278 278 277 277 278 278 278 278 278 278 280 280 281 281 281 281 282 282 283
268 270 270 269 271 272 271 272 274 276 278 280 280 280 281 280 279 278 276 278 279 278 278 279 279 279 279 279 278 278 277 277 277 277 277 278 280 280 280 281 280 281 282 283
272 272 272 272 274 275 275 274 274 277 278 279 279 279 280 280 281 281 280 281 282 281 281 282 282 281 279 279 278 277 276 276 276 276 275 276 276 277 278 279 278 279 281 281
278 277 276 275 276 278 278 277 278 279 280 280 282 283 284 283 283 283 283 283 285 285 284 283 282 282 281 279 279 278 276 275 275 275 276 277 277 277 278 278 279 279 280 281
280 281 282 282 281 280 279 279 280 281 281 281 282 283 284 285 285 285 286 286 285 286 286 286 284 284 285 284 281 280 280 279 277 277 280 280 280 279 278 278 278 279 281 282
278 281 284 286 286 286 284 283 282 282 282 282 282 284 286 287 288 289 289 289 288 289 291 289 287 286 286 286 284 283 283 283 283 283 283 283 283 282 281 280 279 279 281 282
278 281 283 285 286 287 287 287 284 282 283 284 285 286 287 289 291 293 292 291 291 291 290 289 286 287 287 286 286 286 286 286 287 288 288 287 285 284 284 283 281 282 282 284
278 280 282 285 286 287 287 288 286 285 284 286 288 288 289 291 292 293 293 292 292 293 294 293 290 288 288 287 286 287 287 286 289 291 290 288 287 286 287 286 285 285 285 285
Height
5868 5869 5870 5871 5873 5874 5875 5877 5879 5880 5880 5880 5879 5879 5879 5879 5879 5879 5878 5878 5878 5877 5876 5875 5874 5873 5871 5870 5869 5867 5865 5864 5862 5860 5858 5856 5854 5853 5851 5849 5847 5845 5843 5841
5860 5862 5863 5864 5865 5867 5868 5869 5870 5871 5872 5872 5872 5872 5872 5872 5872 5872 5872 5872 5871 5870 5870 5869 5868 5867 5865 5864 5862 5861 5859 5857 5855 5853 5851 5849 5847 5845 5844 5842 5840 5838 5836 5834
5853 5854 5855 5857 5859 5859 5860 5861 5862 5863 5865 5864 5864 5865 5865 5865 5865 5865 5865 5864 5863 5863 5862 5862 5861 5860 5859 5857 5856 5854 5852 5850 5848 5846 5844 5842 5840 5838 5836 5834 5832 5830 5828 5826
5844 5846 5847 5852 5850 5851 5852 5853 5853 5854 5855 5856 5856 5857 5856 5857 5857 5857 5857 5856 5856 5855 5855 5854 5853 5852 5851 5849 5848 5846 5844 5843 5840 5838 5836 5834 5832 5830 5827 5825 5824 5821 5820 5818
5836 5837 5839 5841 5841 5843 5843 5844 5845 5845 5845 5846 5847 5847 5847 5847 5847 5848 5848 5848 5847 5847 5846 5845 5845 5843 5842 5841 5839 5838 5836 5834 5832 5830 5828 5826 5823 5821 5819 5817 5815 5813 5811 5810
5827 5829 5831 5833 5832 5834 5836 5835 5836 5836 5836 5836 5837 5837 5838 5838 5838 5838 5838 5838 5838 5837 5837 5836 5835 5834 5833 5832 5830 5829 5827 5826 5823 5821 5819 5817 5815 5813 5810 5808 5807 5805 5803 5801
5818 5819 5822 5823 5824 5826 5828 5827 5827 5827 5827 5827 5826 5827 5827 5827 5827 5828 5828 5827 5827 5827 5827 5826 5825 5824 5823 5822 5821 5819 5818 5816 5814 5812 5810 5808 5806 5804 5802 5800 5798 5796 5795 5793
5809 5811 5814 5813 5814 5816 5816 5816 5816 5816 5817 5817 5816 5816 5816 5817 5817 5817 5817 5817 5816 5816 5815 5815 5814 5814 5813 5812 5811 5809 5808 5807 5805 5803 5801 5799 5798 5796 5793 5791 5789 5788 5786 5784
5801 5803 5803 5804 5804 5805 5806 5806 5806 5806 5807 5806 5806 5806 5806 5806 5806 5806 5806 5806 5805 5805 5804 5804 5803 5802 5802 5802 5801 5799 5798 5796 5795 5793 5791 5790 5788 5786 5784 5782 5781 5779 5777 5776
5790 5792 5793 5794 5794 5795 5795 5796 5796 5796 5796 5796 5796 5796 5796 5795 5795 5795 5795 5795 5795 5795 5794 5794 5793 5792 5792 5791 5790 5789 5788 5786 5784 5783 5781 5780 5778 5776 5775 5773 5771 5770 5768 5767
5780 5782 5783 5784 5785 5785 5785 5785 5785 5785 5785 5785 5786 5785 5785 5785 5785 5784 5784 5784 5784 5784 5784 5784 5783 5782 5782 5781 5780 5778 5777 5776 5774 5772 5771 5769 5768 5766 5764 5763 5762 5760 5759 5757
5771 5772 5773 5774 5774 5774 5775 5775 5775 5775 5775 5775 5775 5775 5775 5775 5774 5774 5774 5774 5774 5774 5774 5774 5773 5772 5771 5770 5769 5768 5766 5764 5763 5761 5760 5759 5757 5756 5754 5753 5751 5750 5748 5746
5762 5762 5763 5763 5764 5764 5764 5765 5765 5765 5765 5765 5765 5765 5765 5765 5764 5764 5764 5764 5764 5764 5763 5763 5762 5761 5760 5759 5758 5757 5755 5753 5752 5751 5749 5748 5746 5745 5744 5743 5741 5740 5738 5736
5751 5752 5752 5753 5753 5754 5754 5754 5755 5755 5755 5755 5755 5755 5755 5755 5754 5754 5754 5754 5754 5753 5753 5752 5751 5750 5749 5748 5747 5745 5744 5742 5741 5740 5738 5737 5736 5734 5733 5732 5731 5729 5728 5726
5742 5742 5743 5743 5744 5744 5745 5745 5746 5746 5746 5745 5745 5745 5745 5745 5745 5744 5744 5743 5743 5742 5742 5741 5740 5739 5738 5737 5736 5735 5733 5732 5730 5729 5727 5726 5725 5724 5723 5721 5720 5719 5717 5716
5734 5734 5734 5735 5736 5736 5737 5737 5737 5737 5737 5736 5736 5735 5734 5734 5734 5734 5733 5733 5732 5732 5732 5731 5730 5729 5728 5727 5726 5724 5723 5721 5719 5718 5717 5715 5714 5713 5712 5711 5710 5709 5707 5706
5726 5726 5727 5728 5728 5728 5728 5728 5728 5728 5727 5726 5726 5725 5724 5723 5723 5723 5723 5722 5722 5722 5721 5720 5720 5719 5718 5717 5716 5714 5713 5711 5709 5708 5707 5705 5704 5703 5702 5701 5700 5699 5698 5697
5719 5720 5720 5720 5721 5720 5720 5719 5719 5719 5718 5717 5717 5716 5715 5715 5714 5713 5713 5712 5712 5712 5711 5710 5709 5709 5708 5707 5705 5704 5702 5701 5700 5698 5697 5696 5695 5693 5692 5691 5690 5689 5688 5687
5713 5713 5713 5713 5712 5712 5712 5711 5710 5710 5709 5708 5708 5707 5706 5706 5705 5704 5703 5703 5703 5702 5701 5700 5699 5698 5697 5696 5695 5694 5693 5691 5690 5689 5688 5687 5685 5684 5683 5682 5681 5680 5679 5678
5706 5706 5705 5706 5705 5705 5705 5704 5703 5702 5701 5701 5700 5699 5698 5697 5696 5695 5694 5694 5693 5693 5692 5691 5689 5688 5687 5686 5685 5684 5683 5682 5681 5680 5679 5678 5677 5675 5674 5673 5672 5671 5670 5669
5699 5699 5699 5698 5698 5698 5697 5697 5696 5695 5695 5693 5693 5692 5690 5689 5688 5687 5686 5686 5685 5684 5682 5681 5680 5679 5677 5676 5675 5674 5673 5673 5672 5670 5669 5668 5667 5666 5666 5665 5664 5663 5662 5660
5693 5693 5692 5692 5691 5691 5690 5690 5689 5688 5687 5686 5685 5684 5683 5682 5681 5679 5678 5677 5676 5675 5673 5672 5671 5669 5668 5667 5666 5665 5664 5663 5662 5661 5660 5659 5659 5658 5658 5657 5656 5654 5653 5652
5687 5686 5686 5685 5685 5684 5683 5683 5682 5681 5681 5680 5679 5678 5677 5675 5674 5673 5671 5670 5668 5667 5665 5664 5662 5661 5660 5658 5657 5656 5655 5654 5653 5653 5652 5651 5650 5650 5649 5648 5647 5646 5645 5644
5681 5680 5680 5679 5679 5678 5677 5676 5675 5675 5674 5673 5672 5671 5670 5669 5667 5666 5664 5662 5661 5659 5658 5656 5655 5654 5652 5651 5649 5648 5647 5646 5646 5645 5644 5643 5642 5641 5640 5639 5639 5638 5636 5635
5676 5675 5674 5674 5673 5672 5671 5670 5669 5668 5668 5667 5666 5665 5663 5662 5661 5659 5657 5656 5654 5653 5651 5649 5648 5647 5646 5644 5643 5642 5641 5640 5639 5638 5637 5636 5634 5633 5632 5631 5630 5629 5628 5627
5670 5670 5669 5668 5668 5667 5665 5664 5663 5662 5662 5661 5660 5658 5657 5656 5654 5653 5651 5649 5648 5647 5645 5644 5642 5641 5639 5638 5637 5636 5635 5634 5632 5631 5630 5629 5627 5626 5624 5623 5622 5621 5620 5618
5665 5665 5664 5663 5662 5661 5660 5659 5658 5657 5656 5655 5654 5653 5651 5650 5648 5647 5645 5644 5642 5641 5640 5638 5636 5635 5634 5632 5631 5630 5628 5627 5626 5624 5623 5621 5620 5619 5617 5616 5614 5613 5612 5610